Powrót do katalogu

COSMOS 1302

AktywnyMilitariaLEO
NORAD 12791·PAYLOAD·🇷🇺 Russia

Wystrzelony Aug 28, 1981 z Plesetsk Cosmodrome

Loading…

Następne Przeloty (najbliższe 24 godziny)

TLE

ŚwieżeSource: Space-Track

Epoka: Sep 14, 2026, 11:13 UTC

1 12791U 81084A   26257.46805073  .00000068  00000-0  32996-4 0  9993
2 12791  74.0258  67.4144 0018804 203.9014 156.1267 14.35075749355538

Śledź COSMOS 1302 w czasie rzeczywistym z AllMySat

Download on the App Store